Regional Weather Roundup
Issued by NWS

Home | Current Version | Previous Version | Text Only | Print | Product List | Glossary On
Versions: 1 2 3 4 5 6 7 8 9 10 11 12 13 14 15 16 17 18 19 20 21 22 23 24 25 26 27 28 29 30 31 32 33 34 35 36 37 38 39 40 41 42 43 44 45 46 47 48 49 50
000
ASUS44 KMEG 191710
RWRTN
TENNESSEE HOURLY STATE WEATHER ROUNDUP
NATIONAL WEATHER SERVICE MEMPHIS TN
1100 AM CST THU JAN 19 2017

TNZ002-004-019-021-049-052-054-088>092-191800-
WEST TENNESSEE

CITY           SKY/WX    TMP DP  RH WIND       PRES   REMARKS
MEMPHIS INTL   LGT RAIN  65  64  97 S9        29.85F
NWS MEMPHIS      N/A     63 N/A N/A MISG        N/A
JACKSON        CLOUDY    58  58 100 SE3       29.88S FOG
DYERSBURG      CLOUDY    54  50  87 SE5       29.86F
UNION CITY     CLOUDY   N/A N/A N/A CALM      29.86F
PARIS          CLOUDY    46  46 100 SE10      29.90S
HUNTINGDON     CLOUDY    52  52 100 CALM      29.88F FOG
$$

TNZ008-025-027-028-033-062-065-066-191800-
NORTH MIDDLE TENNESSEE

CITY           SKY/WX    TMP DP  RH WIND       PRES   REMARKS
NASHVILLE      LGT RAIN  53  50  89 E5        29.96F
PORTLAND       PTSUNNY   54  54 100 SE9       29.95F
CLARKSVILLE    CLOUDY    53  50  89 E8        29.93F
SMYRNA         LGT RAIN  53  52  96 SE5       29.97F FOG
GALLATIN       CLOUDY    52  52 100 E7        29.99F
CROSSVILLE     CLOUDY    52  49  89 CALM      30.02F
$$

TNZ061-075-076-078-094-096-097-191800-
SOUTH MIDDLE TENNESSEE

CITY           SKY/WX    TMP DP  RH WIND       PRES   REMARKS
TULLAHOMA      SUNNY     57  55  94 SE7       29.97F
WINCHESTER     SUNNY     59  54  82 SE12      29.98F
MCMINNVILLE    MOSUNNY   59  57  94 CALM      29.98F
COLUMBIA       CLOUDY   N/A N/A N/A CALM      29.92F
SHELBYVILLE    PTSUNNY   61  57  88 E8        29.96F
$$

TNZ017-018-042-046-047-191800-
NORTHEAST TENNESSEE

CITY           SKY/WX    TMP DP  RH WIND       PRES   REMARKS
TRI CITIES     PTSUNNY   57  41  55 CALM      30.03F
ELIZABETHTON   SUNNY     59  37  44 VRB3      30.02F
$$

TNZ012-013-036-069-073-074-191800-
CENTRAL EAST TENNESSEE

CITY           SKY/WX    TMP DP  RH WIND       PRES   REMARKS
KNOXVILLE      CLOUDY    53  42  66 CALM      30.03F
OAK RIDGE      LGT RAIN  52  43  71 CALM      30.06S
GATLINBURG     CLOUDY    52  43  71 CALM      30.02F
MORRISTOWN     CLOUDY    57  43  58 NE6       30.03S
JACKSBORO      CLOUDY    50  43  76 CALM      30.08F
$$

TNZ083-085-099-191800-
SOUTHEAST TENNESSEE

CITY           SKY/WX    TMP DP  RH WIND       PRES   REMARKS
CHATTANOOGA    CLOUDY    56  43  61 NW3       30.04S
$$

SKY/WX REPORTED AS FAIR MEANS FEW OR NO CLOUDS BELOW
12 THOUSAND FEET.




USA.gov is the U.S. government's official web portal to all federal, state and local government web resources and services.